Weather History for Kalaeloa, HI

Change the Weather History Date:

Thursday, June 13, 2013

  Actual Average (PHNL) Record (PHNL)
Temperature  
Mean Temperature 80 °F 80 °F  
Max Temperature 86 °F 87 °F 90 °F (2005)
Min Temperature 73 °F 73 °F 67 °F (1969)
Degree Days  
Heating Degree Days 0 0  
Month to date heating degree days 0  
Since 1 June heating degree days 0  
Since 1 July heating degree days 0  
Cooling Degree Days 14 15  
Month to date cooling degree days 192  
Year to date cooling degree days 1694  
Since 1 June cooling degree days 192  
Growing Degree Days 30 (Base 50)    
Moisture  
Dew Point 66 °F    
Average Humidity 67    
Maximum Humidity 79    
Minimum Humidity 49    
Precipitation  
Precipitation 0.00 in 0.00 in 0.26 in (1996)
Month to date precipitation 0.12  
Year to date precipitation 7.69  
Snow  
Snow 0.00 in - - ()
Month to date snowfall  
Since 1 June snowfall  
Since 1 July snowfall  
Snow Depth -    
Sea Level Pressure  
Sea Level Pressure 30.11 in    
Wind  
Wind Speed 7 mph (ENE)    
Max Wind Speed 12 mph    
Max Gust Speed 25 mph    
Visibility 10 miles    
Events Rain    
T = Trace of Precipitation, MM = Missing Value Source: NWS Daily Summary

Daily Weather History Graph

Daily Weather History Graph

Search for Another Location

Airport:

Trip Planner

Search our weather history database for the weather conditions in past years. The results will help you decide how hot, cold, wet, or windy it might be!

Date:

Astronomy

Jun. 13, 2013 Rise Set
Actual Time 5:49 AM HST 7:15 PM HST
Civil Twilight 5:25 AM HST 7:39 PM HST
Nautical Twilight 4:55 AM HST 8:09 PM HST
Astronomical Twilight 4:24 AM HST 8:40 PM HST
Moon 10:09 AM HST (6/13) 10:59 PM HST (6/13)
Length of Visible Light 14h 14m
Length of Day
13h 25m
Waxing Crescent, 23% of the Moon is Illuminated
Jun 13
Waxing Crescent
Jun 16
First Quarter
Jun 23
Full
Jun 29
Last Quarter
Jul 7
New

Hourly Weather History & Observations

Time (HST) Temp. Heat Index Dew Point Humidity Pressure Visibility Wind Dir Wind Speed Gust Speed Precip Events Conditions
12:17 AM 73.4 °F - 64.4 °F 73% 30.09 in 10.0 mi ENE 4.6 mph - N/A   Partly Cloudy
12:53 AM 75.0 °F - 64.9 °F 71% 30.11 in 10.0 mi Variable 4.6 mph - N/A   Clear
1:53 AM 75.0 °F - 64.9 °F 71% 30.10 in 10.0 mi ENE 5.8 mph - N/A   Clear
2:53 AM 73.9 °F - 66.0 °F 76% 30.09 in 10.0 mi ENE 6.9 mph - N/A   Scattered Clouds
3:53 AM 73.9 °F - 64.9 °F 73% 30.09 in 10.0 mi ENE 8.1 mph - N/A   Clear
4:53 AM 73.0 °F - 64.9 °F 76% 30.10 in 10.0 mi Variable 4.6 mph - N/A   Clear
5:53 AM 73.0 °F - 64.9 °F 76% 30.12 in 10.0 mi Variable 4.6 mph - N/A   Clear
6:53 AM 75.9 °F - 64.9 °F 69% 30.12 in 10.0 mi ENE 6.9 mph - N/A   Clear
7:53 AM 79.0 °F - 64.9 °F 62% 30.12 in 10.0 mi East 8.1 mph - N/A   Clear
8:53 AM 80.1 °F 81.9 °F 64.9 °F 60% 30.13 in 10.0 mi NE 8.1 mph - N/A   Overcast
9:53 AM 82.0 °F 84.1 °F 66.0 °F 58% 30.13 in 10.0 mi NE 8.1 mph 18.4 mph N/A   Scattered Clouds
10:53 AM 82.9 °F 84.4 °F 64.0 °F 53% 30.13 in 10.0 mi ENE 9.2 mph 21.9 mph N/A   Mostly Cloudy
11:53 AM 86.0 °F 87.6 °F 64.9 °F 49% 30.12 in 10.0 mi East 10.4 mph 20.7 mph N/A   Partly Cloudy
12:53 PM 81.0 °F 83.3 °F 66.9 °F 62% 30.14 in 9.0 mi ENE 9.2 mph 25.3 mph 0.00 in Rain Light Rain
1:53 PM 82.9 °F 85.0 °F 66.0 °F 56% 30.11 in 10.0 mi East 9.2 mph 24.2 mph 0.00 in   Mostly Cloudy
2:53 PM 80.1 °F 82.7 °F 68.0 °F 67% 30.11 in 10.0 mi East 10.4 mph 24.2 mph N/A   Mostly Cloudy
3:53 PM 82.9 °F 85.8 °F 68.0 °F 60% 30.09 in 10.0 mi ENE 11.5 mph 21.9 mph N/A   Mostly Cloudy
4:53 PM 81.0 °F 82.7 °F 64.9 °F 58% 30.09 in 10.0 mi ENE 8.1 mph 21.9 mph N/A   Partly Cloudy
5:53 PM 80.1 °F 81.9 °F 64.9 °F 60% 30.09 in 10.0 mi East 10.4 mph 18.4 mph N/A   Clear
6:53 PM 78.1 °F - 64.9 °F 64% 30.10 in 10.0 mi ENE 10.4 mph 19.6 mph N/A   Mostly Cloudy
7:53 PM 75.9 °F - 66.0 °F 71% 30.12 in 10.0 mi ENE 9.2 mph - N/A   Partly Cloudy
8:53 PM 75.9 °F - 66.9 °F 74% 30.13 in 10.0 mi ENE 8.1 mph - N/A   Scattered Clouds
9:53 PM 75.0 °F - 66.9 °F 76% 30.15 in 10.0 mi Variable 4.6 mph - N/A   Partly Cloudy
10:53 PM 75.0 °F - 66.9 °F 76% 30.15 in 10.0 mi Variable 4.6 mph - N/A   Clear
11:53 PM 73.9 °F - 66.9 °F 79% 30.14 in 10.0 mi Variable 4.6 mph - N/A   Clear